Location: Bussy-Saint-Georges
(48.8410°N, 2.7017°E)
Time: 16:18:39
(UTC+00:00)

CSL-04 Rocket - Pass Details

Date: 18 October 2021
Orbit: 805 x 860 km, 98.9° (Epoch: 28 November)

Event Time Altitude Azimuth Distance (km) Brightness Sun altitude
Exits shadow 18:56:13 23° 152° (SSE) 1,723 5.0 -20.9°
Maximum altitude 18:59:43 74° 72° (ENE) 897 3.6 -21.5°
Drops below altitude 10° 19:05:17 10° 348° (NNW) 2,510 6.4 -22.4°
Sets 19:07:40 0° 347° (NNW) 3,451 7.2 -22.7°
